Regional Weather Roundup
Issued by NWS Cleveland, OH

Home | Current Version | Previous Version | Graphics & Text | Print | Product List | Glossary On
Versions: 1 2 3 4 5 6 7 8 9 10 11 12 13 14 15 16 17 18 19 20 21 22 23 24 25 26 27 28 29 30 31 32 33 34 35 36 37 38 39 40 41 42 43 44 45 46 47 48 49 50
000
ASUS41 KCLE 282002
RWRCLE
OHIO REGIONAL WEATHER ROUNDUP
NATIONAL WEATHER SERVICE CLEVELAND, OH
400 PM EDT FRI AUG 28 2015

NOTE: "FAIR" INDICATES FEW OR NO CLOUDS BELOW 12,000 FEET WITH NO
SIGNIFICANT WEATHER AND/OR OBSTRUCTIONS TO VISIBILITY.

OHZ001>008-015>018-024>027-034-035-043-044-282100-
   NORTHWEST OHIO

CITY           SKY/WX    TMP DP  RH WIND       PRES   REMARKS
DEFIANCE       CLOUDY    77  58  51 VRB5      30.15F
FINDLAY        CLOUDY    76  57  51 SW5       30.15F
TOLEDO EXPRESS CLOUDY    75  57  53 CALM      30.15F
TOLEDO EXEC    PTSUNNY   77  54  44 W6        30.16F
LIMA           PTSUNNY   78  56  46 SE6       30.16F
$$

OHZ009>014-019>023-028>033-038-089-282100-
   NORTHEAST OHIO

CITY           SKY/WX    TMP DP  RH WIND       PRES   REMARKS
CLE-HOPKINS    MOSUNNY   76  58  53 N10       30.18F
CLE-LAKEFRONT  SUNNY     74  58  57 N9        30.16F
CUY CO. ARPT   MOSUNNY   73  57  56 N9        30.18F
LORAIN-ELYRIA  MOSUNNY   76  58  53 N6        30.16F
ASHTABULA      PTSUNNY   73  58  59 NE7       30.19F
AKRON-CANTON   MOSUNNY   79  50  36 W3        30.17F
WOOSTER        MOSUNNY   79  51  37 VRB6      30.17F
MANSFIELD      SUNNY     78  52  40 VRB6      30.17F
YOUNGSTOWN     PTSUNNY   76  53  44 CALM      30.18F
$$

OHZ042-051>053-060>062-070>072-077>081-282100-
  SOUTHWEST OHIO

CITY           SKY/WX    TMP DP  RH WIND       PRES   REMARKS
CINC-COVINGTON PTSUNNY   80  56  43 SE10      30.14F
CINC-LUNKEN    SUNNY     78  59  51 SW7       30.14F
HAMILTON       MOSUNNY   80  56  43 SE3       30.15F
DAYTON         PTSUNNY   78  56  46 VRB6      30.16F
WRIGHT-PAT AFB MOSUNNY   78  55  45 E2        30.15F
DAYTON GENERAL MOSUNNY   77  55  46 E5        30.15F
WILMINGTON     MOSUNNY   76  56  49 MISG      30.15F
$$

OHZ036-037-039>041-045>050-054>059-063>069-073>076-082>088-282100-
  CENTRAL AND SOUTHEAST OHIO

CITY           SKY/WX    TMP DP  RH WIND       PRES   REMARKS
COLUMBUS       PTSUNNY   78  53  41 VRB6      30.14F
OSU AIRPORT    MOSUNNY   79  54  41 E6        30.15F
BOLTON FIELD   SUNNY     79  57  47 SE3       30.16F
RICKENBACK AFB SUNNY     77  54  45 CALM      30.15F
NEWARK         SUNNY     79  53  40 CALM      30.15F
MARION         PTSUNNY   78  55  44 SE6       30.16F
LANCASTER      SUNNY     79  55  43 VRB5      30.15F
ZANESVILLE     MOSUNNY   81  51  35 NW6       30.15F
NEW PHILLY     SUNNY     78  51  38 CALM      30.17F
$$



USA.gov is the U.S. government's official web portal to all federal, state and local government web resources and services.